Time,TemperatureF,DewpointF,PressureIn,WindDirection,WindDirectionDegrees,WindSpeedMPH,WindSpeedGustMPH,Humidity,HourlyPrecipIn,Conditions,Clouds,dailyrainin,SoftwareType,DateUTC
2013-02-06 00:00:00,39.9,38.3,30.04,WNW,298,0.0,0.0,94,0.00,,---,0.00,VWS V14.01,2013-02-06 06:00:00,
2013-02-06 00:05:00,39.8,38.2,30.04,WNW,298,0.0,0.0,94,0.00,,---,0.00,VWS V14.01,2013-02-06 06:05:00,
2013-02-06 00:10:00,39.7,38.1,30.04,WNW,298,0.0,0.0,94,0.00,,---,0.00,VWS V14.01,2013-02-06 06:10:00,
2013-02-06 00:15:00,39.5,37.9,30.04,WNW,298,0.0,0.0,94,0.00,,---,0.00,VWS V14.01,2013-02-06 06:15:00,
2013-02-06 00:20:00,39.3,37.7,30.04,WNW,298,0.0,0.0,94,0.00,,---,0.00,VWS V14.01,2013-02-06 06:20:00,
2013-02-06 00:25:00,39.3,38.0,30.04,WNW,298,0.0,0.0,95,0.00,,---,0.00,VWS V14.01,2013-02-06 06:25:00,
2013-02-06 00:30:00,39.4,38.1,30.04,WNW,298,0.0,0.0,95,0.00,,---,0.00,VWS V14.01,2013-02-06 06:30:00,
2013-02-06 00:35:00,39.5,38.2,30.04,WNW,298,0.0,0.0,95,0.00,,---,0.00,VWS V14.01,2013-02-06 06:35:00,
2013-02-06 00:40:00,39.5,38.2,30.04,WNW,298,0.0,0.0,95,0.00,,---,0.00,VWS V14.01,2013-02-06 06:40:00,
2013-02-06 00:45:00,39.4,38.1,30.04,WNW,298,0.0,0.0,95,0.00,,---,0.00,VWS V14.01,2013-02-06 06:45:00,
2013-02-06 00:50:00,39.6,38.6,30.04,WNW,298,0.0,2.0,96,0.00,,---,0.00,VWS V14.01,2013-02-06 06:50:00,
2013-02-06 00:55:00,39.8,38.8,30.04,WNW,298,0.0,2.0,96,0.00,,---,0.00,VWS V14.01,2013-02-06 06:55:00,
2013-02-06 01:00:00,39.9,38.8,30.04,WNW,298,0.0,2.0,96,0.00,,---,0.00,VWS V14.01,2013-02-06 07:00:00,
2013-02-06 01:05:00,40.1,39.0,30.04,WNW,298,0.0,0.0,96,0.00,,---,0.00,VWS V14.01,2013-02-06 07:05:00,
2013-02-06 01:10:00,40.0,38.7,30.04,WNW,298,0.0,0.0,95,0.00,,---,0.00,VWS V14.01,2013-02-06 07:10:00,
2013-02-06 01:15:00,39.9,38.6,30.05,WNW,298,0.0,0.0,95,0.00,,---,0.00,VWS V14.01,2013-02-06 07:15:00,
2013-02-06 01:20:00,40.0,39.0,30.05,WNW,298,0.0,0.0,96,0.00,,---,0.00,VWS V14.01,2013-02-06 07:20:00,
2013-02-06 01:25:00,39.9,38.6,30.05,WNW,298,0.0,0.0,95,0.00,,---,0.00,VWS V14.01,2013-02-06 07:25:00,
2013-02-06 01:30:00,39.8,38.5,30.05,WNW,298,0.0,0.0,95,0.00,,---,0.00,VWS V14.01,2013-02-06 07:30:00,
2013-02-06 01:35:00,39.7,38.4,30.05,WNW,298,0.0,0.0,95,0.00,,---,0.00,VWS V14.01,2013-02-06 07:35:00,
2013-02-06 01:40:00,39.6,38.3,30.05,WNW,298,0.0,0.0,95,0.00,,---,0.00,VWS V14.01,2013-02-06 07:40:00,
2013-02-06 01:45:00,39.5,38.2,30.05,WNW,298,0.0,0.0,95,0.00,,---,0.00,VWS V14.01,2013-02-06 07:45:00,
2013-02-06 01:50:00,39.3,38.0,30.06,WNW,298,0.0,0.0,95,0.00,,---,0.00,VWS V14.01,2013-02-06 07:50:00,
2013-02-06 01:55:00,39.2,37.9,30.06,WNW,298,0.0,0.0,95,0.00,,---,0.00,VWS V14.01,2013-02-06 07:55:00,
2013-02-06 02:00:00,39.1,37.8,30.06,WNW,298,0.0,0.0,95,0.00,,---,0.00,VWS V14.01,2013-02-06 08:00:00,
2013-02-06 02:05:00,38.9,37.6,30.06,WNW,298,0.0,0.0,95,0.00,,---,0.00,VWS V14.01,2013-02-06 08:05:00,
2013-02-06 02:10:00,38.7,37.1,30.07,WNW,298,0.0,0.0,94,0.00,,---,0.00,VWS V14.01,2013-02-06 08:10:00,
2013-02-06 02:15:00,38.6,37.0,30.07,WNW,298,0.0,0.0,94,0.00,,---,0.00,VWS V14.01,2013-02-06 08:15:00,
2013-02-06 02:20:00,38.4,37.1,30.08,NNW,346,3.0,4.0,95,0.00,,---,0.00,VWS V14.01,2013-02-06 08:20:00,
2013-02-06 02:25:00,38.4,37.1,30.08,NNW,346,0.0,4.0,95,0.00,,---,0.00,VWS V14.01,2013-02-06 08:25:00,
2013-02-06 02:30:00,38.5,37.2,30.08,NNW,346,0.0,4.0,95,0.00,,---,0.00,VWS V14.01,2013-02-06 08:30:00,
2013-02-06 02:35:00,38.5,37.5,30.08,NNW,346,0.0,0.0,96,0.00,,---,0.00,VWS V14.01,2013-02-06 08:35:00,
2013-02-06 02:40:00,38.6,37.6,30.08,NNW,346,2.0,2.0,96,0.00,,---,0.00,VWS V14.01,2013-02-06 08:40:00,
2013-02-06 02:45:00,38.7,37.7,30.08,NNW,346,0.0,3.0,96,0.00,,---,0.00,VWS V14.01,2013-02-06 08:45:00,
2013-02-06 02:50:00,38.7,37.7,30.09,NNW,346,0.0,3.0,96,0.00,,---,0.00,VWS V14.01,2013-02-06 08:50:00,
2013-02-06 02:55:00,38.6,37.6,30.09,NNW,346,0.0,3.0,96,0.00,,---,0.00,VWS V14.01,2013-02-06 08:55:00,
2013-02-06 03:00:00,38.6,37.6,30.09,NNW,346,0.0,3.0,96,0.00,,---,0.00,VWS V14.01,2013-02-06 09:00:00,
2013-02-06 03:05:00,38.4,37.1,30.09,NNW,346,0.0,0.0,95,0.00,,---,0.00,VWS V14.01,2013-02-06 09:05:00,
2013-02-06 03:10:00,38.3,37.0,30.09,NNW,346,0.0,0.0,95,0.00,,---,0.00,VWS V14.01,2013-02-06 09:10:00,
2013-02-06 03:15:00,38.1,36.8,30.09,NNW,346,0.0,0.0,95,0.00,,---,0.00,VWS V14.01,2013-02-06 09:15:00,
2013-02-06 03:20:00,38.0,36.7,30.09,NNW,346,0.0,0.0,95,0.00,,---,0.00,VWS V14.01,2013-02-06 09:20:00,
2013-02-06 03:25:00,38.0,37.0,30.09,NNW,346,0.0,0.0,96,0.00,,---,0.00,VWS V14.01,2013-02-06 09:25:00,
2013-02-06 03:30:00,38.0,37.0,30.09,NNW,346,0.0,0.0,96,0.00,,---,0.00,VWS V14.01,2013-02-06 09:30:00,
2013-02-06 03:35:00,38.0,37.0,30.09,NNW,346,0.0,0.0,96,0.00,,---,0.00,VWS V14.01,2013-02-06 09:35:00,
2013-02-06 03:40:00,38.0,37.0,30.09,NNW,346,0.0,2.0,96,0.00,,---,0.00,VWS V14.01,2013-02-06 09:40:00,
2013-02-06 03:45:00,38.0,37.0,30.10,NNW,346,1.0,2.0,96,0.00,,---,0.00,VWS V14.01,2013-02-06 09:45:00,
2013-02-06 03:50:00,38.0,37.0,30.10,NNE,18,5.0,5.0,96,0.00,,---,0.00,VWS V14.01,2013-02-06 09:50:00,
2013-02-06 03:55:00,38.7,37.9,30.10,NE,42,5.0,8.0,97,0.00,,---,0.00,VWS V14.01,2013-02-06 09:55:00,
2013-02-06 04:00:00,40.0,39.5,30.10,NE,35,5.0,8.0,98,0.00,,---,0.00,VWS V14.01,2013-02-06 10:00:00,
2013-02-06 04:05:00,41.1,40.6,30.10,NE,44,3.0,3.0,98,0.00,,---,0.00,VWS V14.01,2013-02-06 10:05:00,
2013-02-06 04:10:00,41.6,41.1,30.10,NE,34,2.0,5.0,98,0.00,,---,0.00,VWS V14.01,2013-02-06 10:10:00,
2013-02-06 04:15:00,41.8,41.3,30.10,NNE,33,3.0,6.0,98,0.00,,---,0.00,VWS V14.01,2013-02-06 10:15:00,
2013-02-06 04:20:00,42.0,41.5,30.10,NE,37,3.0,7.0,98,0.00,,---,0.00,VWS V14.01,2013-02-06 10:20:00,
2013-02-06 04:25:00,42.3,41.8,30.10,NE,48,3.0,7.0,98,0.00,,---,0.00,VWS V14.01,2013-02-06 10:25:00,
2013-02-06 04:30:00,42.5,42.0,30.11,NE,39,0.0,7.0,98,0.00,,---,0.00,VWS V14.01,2013-02-06 10:30:00,
2013-02-06 04:35:00,42.9,42.4,30.11,NE,35,4.0,5.0,98,0.00,,---,0.00,VWS V14.01,2013-02-06 10:35:00,
2013-02-06 04:40:00,43.2,42.7,30.11,ENE,63,5.0,11.0,98,0.01,,---,0.01,VWS V14.01,2013-02-06 10:40:00,
2013-02-06 04:45:00,43.4,42.9,30.12,ENE,78,5.0,11.0,98,0.01,,---,0.01,VWS V14.01,2013-02-06 10:45:00,
2013-02-06 04:50:00,43.4,42.9,30.12,ENE,59,7.0,11.0,98,0.01,,---,0.01,VWS V14.01,2013-02-06 10:50:00,
2013-02-06 04:55:00,43.4,42.9,30.12,NE,38,7.0,11.0,98,0.01,,---,0.01,VWS V14.01,2013-02-06 10:55:00,
2013-02-06 05:00:00,43.4,42.9,30.12,NE,38,5.0,11.0,98,0.01,,---,0.01,VWS V14.01,2013-02-06 11:00:00,
2013-02-06 05:05:00,43.4,42.9,30.12,NE,55,7.0,7.0,98,0.01,,---,0.01,VWS V14.01,2013-02-06 11:05:00,
2013-02-06 05:10:00,43.5,43.0,30.12,ENE,62,8.0,11.0,98,0.01,,---,0.01,VWS V14.01,2013-02-06 11:10:00,
2013-02-06 05:15:00,43.5,43.0,30.12,NE,43,8.0,11.0,98,0.01,,---,0.01,VWS V14.01,2013-02-06 11:15:00,
2013-02-06 05:20:00,43.5,43.0,30.12,NNE,30,6.0,11.0,98,0.01,,---,0.01,VWS V14.01,2013-02-06 11:20:00,
2013-02-06 05:25:00,43.5,43.0,30.12,ENE,62,3.0,11.0,98,0.01,,---,0.01,VWS V14.01,2013-02-06 11:25:00,
2013-02-06 05:30:00,43.6,43.1,30.13,ENE,59,8.0,11.0,98,0.01,,---,0.01,VWS V14.01,2013-02-06 11:30:00,
2013-02-06 05:35:00,43.5,43.0,30.12,ENE,65,3.0,7.0,98,0.01,,---,0.01,VWS V14.01,2013-02-06 11:35:00,
2013-02-06 05:40:00,43.5,42.7,30.13,NE,34,2.0,7.0,97,0.01,,---,0.01,VWS V14.01,2013-02-06 11:40:00,
2013-02-06 05:45:00,43.5,43.0,30.13,ENE,63,4.0,10.0,98,0.01,,---,0.01,VWS V14.01,2013-02-06 11:45:00,
2013-02-06 05:50:00,43.4,42.6,30.12,NE,49,6.0,10.0,97,0.01,,---,0.01,VWS V14.01,2013-02-06 11:50:00,
2013-02-06 05:55:00,43.4,42.6,30.13,NE,56,6.0,10.0,97,0.01,,---,0.01,VWS V14.01,2013-02-06 11:55:00,
2013-02-06 06:00:00,43.3,42.5,30.13,NE,46,4.0,10.0,97,0.01,,---,0.01,VWS V14.01,2013-02-06 12:00:00,
2013-02-06 06:05:00,43.2,42.4,30.13,ENE,69,3.0,4.0,97,0.00,,---,0.01,VWS V14.01,2013-02-06 12:05:00,
2013-02-06 06:10:00,43.1,42.3,30.13,NE,55,2.0,7.0,97,0.00,,---,0.01,VWS V14.01,2013-02-06 12:10:00,
2013-02-06 06:15:00,43.1,42.3,30.13,ENE,61,2.0,7.0,97,0.00,,---,0.01,VWS V14.01,2013-02-06 12:15:00,
2013-02-06 06:20:00,43.0,42.2,30.14,NE,44,3.0,7.0,97,0.00,,---,0.01,VWS V14.01,2013-02-06 12:20:00,
2013-02-06 06:25:00,42.9,42.1,30.14,NE,49,4.0,7.0,97,0.00,,---,0.01,VWS V14.01,2013-02-06 12:25:00,
2013-02-06 06:30:00,42.8,42.0,30.14,NE,48,4.0,7.0,97,0.00,,---,0.01,VWS V14.01,2013-02-06 12:30:00,
2013-02-06 06:35:00,42.8,42.0,30.14,NE,56,2.0,3.0,97,0.00,,---,0.01,VWS V14.01,2013-02-06 12:35:00,
2013-02-06 06:40:00,42.7,41.6,30.14,NNE,20,1.0,7.0,96,0.00,,---,0.01,VWS V14.01,2013-02-06 12:40:00,
2013-02-06 06:45:00,42.6,41.5,30.14,ENE,64,7.0,8.0,96,0.00,,---,0.01,VWS V14.01,2013-02-06 12:45:00,
2013-02-06 06:50:00,42.6,41.8,30.14,NE,38,7.0,9.0,97,0.00,,---,0.01,VWS V14.01,2013-02-06 12:50:00,
2013-02-06 06:55:00,42.5,41.4,30.14,NNE,28,4.0,9.0,96,0.00,,---,0.01,VWS V14.01,2013-02-06 12:55:00,
2013-02-06 07:00:00,42.4,41.6,30.14,NNE,22,3.0,9.0,97,0.00,,---,0.01,VWS V14.01,2013-02-06 13:00:00,
2013-02-06 07:05:00,42.3,41.5,30.15,North,5,3.0,3.0,97,0.00,,---,0.01,VWS V14.01,2013-02-06 13:05:00,
2013-02-06 07:10:00,42.3,41.5,30.15,NNE,12,2.0,4.0,97,0.00,,---,0.01,VWS V14.01,2013-02-06 13:10:00,
2013-02-06 07:15:00,42.2,41.1,30.15,NNE,26,2.0,4.0,96,0.00,,---,0.01,VWS V14.01,2013-02-06 13:15:00,
2013-02-06 07:20:00,42.0,40.9,30.15,NE,46,3.0,5.0,96,0.00,,---,0.01,VWS V14.01,2013-02-06 13:20:00,
2013-02-06 07:25:00,42.0,40.9,30.15,NE,50,4.0,7.0,96,0.00,,---,0.01,VWS V14.01,2013-02-06 13:25:00,
2013-02-06 07:30:00,42.0,40.9,30.15,NE,50,4.0,7.0,96,0.00,,---,0.01,VWS V14.01,2013-02-06 13:30:00,
2013-02-06 07:35:00,42.1,41.0,30.16,NE,39,6.0,6.0,96,0.00,,---,0.01,VWS V14.01,2013-02-06 13:35:00,
2013-02-06 07:40:00,42.2,41.1,30.16,NE,44,5.0,8.0,96,0.00,,---,0.01,VWS V14.01,2013-02-06 13:40:00,
2013-02-06 07:45:00,42.4,41.3,30.16,NE,48,6.0,8.0,96,0.00,,---,0.01,VWS V14.01,2013-02-06 13:45:00,
2013-02-06 07:50:00,42.5,41.4,30.16,ENE,59,4.0,8.0,96,0.00,,---,0.01,VWS V14.01,2013-02-06 13:50:00,
2013-02-06 07:55:00,42.7,41.6,30.16,NE,38,3.0,8.0,96,0.00,,---,0.01,VWS V14.01,2013-02-06 13:55:00,
2013-02-06 08:00:00,42.9,41.6,30.16,NE,39,5.0,10.0,95,0.00,,---,0.01,VWS V14.01,2013-02-06 14:00:00,
2013-02-06 08:05:00,43.1,41.8,30.16,NE,49,5.0,5.0,95,0.00,,---,0.01,VWS V14.01,2013-02-06 14:05:00,
2013-02-06 08:10:00,43.3,41.7,30.17,NE,36,2.0,6.0,94,0.00,,---,0.01,VWS V14.01,2013-02-06 14:10:00,
2013-02-06 08:15:00,43.6,41.7,30.17,NE,50,5.0,7.0,93,0.00,,---,0.01,VWS V14.01,2013-02-06 14:15:00,
2013-02-06 08:20:00,43.8,41.9,30.17,ENE,78,5.0,8.0,93,0.00,,---,0.01,VWS V14.01,2013-02-06 14:20:00,
2013-02-06 08:25:00,44.1,41.9,30.18,ENE,77,4.0,9.0,92,0.00,,---,0.01,VWS V14.01,2013-02-06 14:25:00,
2013-02-06 08:30:00,44.5,42.3,30.18,ENE,69,5.0,9.0,92,0.00,,---,0.01,VWS V14.01,2013-02-06 14:30:00,
2013-02-06 08:35:00,45.0,42.2,30.18,East,82,1.0,3.0,90,0.00,,---,0.01,VWS V14.01,2013-02-06 14:35:00,
2013-02-06 08:40:00,45.4,42.1,30.19,ENE,60,5.0,8.0,88,0.00,,---,0.01,VWS V14.01,2013-02-06 14:40:00,
2013-02-06 08:45:00,45.7,41.8,30.19,NNE,26,7.0,11.0,86,0.00,,---,0.01,VWS V14.01,2013-02-06 14:45:00,
2013-02-06 08:50:00,46.1,41.8,30.19,ENE,58,8.0,11.0,85,0.00,,---,0.01,VWS V14.01,2013-02-06 14:50:00,
2013-02-06 08:55:00,46.5,41.9,30.19,NE,50,4.0,11.0,84,0.00,,---,0.01,VWS V14.01,2013-02-06 14:55:00,
2013-02-06 09:00:00,46.8,41.9,30.19,ENE,58,7.0,11.0,83,0.00,,---,0.01,VWS V14.01,2013-02-06 15:00:00,
2013-02-06 09:05:00,47.2,42.0,30.19,ENE,60,7.0,7.0,82,0.00,,---,0.01,VWS V14.01,2013-02-06 15:05:00,
2013-02-06 09:10:00,47.6,41.8,30.19,ENE,60,3.0,12.0,80,0.00,,---,0.01,VWS V14.01,2013-02-06 15:10:00,
2013-02-06 09:15:00,47.9,41.7,30.19,NE,36,9.0,12.0,79,0.00,,---,0.01,VWS V14.01,2013-02-06 15:15:00,
2013-02-06 09:20:00,48.3,41.8,30.19,ENE,63,8.0,12.0,78,0.00,,---,0.01,VWS V14.01,2013-02-06 15:20:00,
2013-02-06 09:25:00,48.8,42.6,30.19,ESE,112,5.0,12.0,79,0.00,,---,0.01,VWS V14.01,2013-02-06 15:25:00,
2013-02-06 09:30:00,49.7,42.5,30.19,ENE,78,2.0,12.0,76,0.00,,---,0.01,VWS V14.01,2013-02-06 15:30:00,
2013-02-06 09:35:00,50.3,42.3,30.19,East,90,5.0,5.0,74,0.00,,---,0.01,VWS V14.01,2013-02-06 15:35:00,
2013-02-06 09:40:00,50.6,43.0,30.19,East,86,2.0,8.0,75,0.00,,---,0.01,VWS V14.01,2013-02-06 15:40:00,
2013-02-06 09:45:00,51.0,42.7,30.19,ENE,71,5.0,8.0,73,0.00,,---,0.01,VWS V14.01,2013-02-06 15:45:00,
2013-02-06 09:50:00,51.6,43.2,30.20,ENE,57,7.0,8.0,73,0.00,,---,0.01,VWS V14.01,2013-02-06 15:50:00,
2013-02-06 09:55:00,52.1,43.0,30.20,NE,51,5.0,8.0,71,0.00,,---,0.01,VWS V14.01,2013-02-06 15:55:00,
2013-02-06 10:00:00,51.8,42.3,30.19,East,86,8.0,10.0,70,0.00,,---,0.01,VWS V14.01,2013-02-06 16:00:00,
2013-02-06 10:05:00,52.1,42.6,30.19,ENE,65,8.0,8.0,70,0.00,,---,0.01,VWS V14.01,2013-02-06 16:05:00,
2013-02-06 10:10:00,52.5,42.3,30.19,NE,51,4.0,10.0,68,0.00,,---,0.01,VWS V14.01,2013-02-06 16:10:00,
2013-02-06 10:15:00,53.2,42.5,30.18,ENE,63,5.0,10.0,67,0.00,,---,0.01,VWS V14.01,2013-02-06 16:15:00,
2013-02-06 10:20:00,53.5,42.8,30.17,SE,136,6.0,12.0,67,0.00,,---,0.01,VWS V14.01,2013-02-06 16:20:00,
2013-02-06 10:25:00,53.9,42.8,30.17,East,79,5.0,12.0,66,0.00,,---,0.01,VWS V14.01,2013-02-06 16:25:00,
2013-02-06 10:30:00,54.0,42.5,30.17,ENE,65,7.0,12.0,65,0.00,,---,0.01,VWS V14.01,2013-02-06 16:30:00,
2013-02-06 10:35:00,54.2,42.3,30.17,NE,49,6.0,6.0,64,0.00,,---,0.01,VWS V14.01,2013-02-06 16:35:00,
2013-02-06 10:40:00,54.6,42.7,30.17,NE,49,10.0,10.0,64,0.00,,---,0.01,VWS V14.01,2013-02-06 16:40:00,
2013-02-06 10:45:00,54.9,42.1,30.17,ENE,72,7.0,12.0,62,0.00,,---,0.01,VWS V14.01,2013-02-06 16:45:00,
2013-02-06 10:50:00,55.4,43.0,30.16,East,98,7.0,12.0,63,0.00,,---,0.01,VWS V14.01,2013-02-06 16:50:00,
2013-02-06 10:55:00,56.5,43.7,30.16,ENE,65,5.0,12.0,62,0.00,,---,0.01,VWS V14.01,2013-02-06 16:55:00,
2013-02-06 11:00:00,57.0,42.8,30.16,ENE,69,4.0,12.0,59,0.00,,---,0.01,VWS V14.01,2013-02-06 17:00:00,
2013-02-06 11:05:00,56.6,42.9,30.15,ENE,73,8.0,9.0,60,0.00,,---,0.01,VWS V14.01,2013-02-06 17:05:00,
2013-02-06 11:10:00,56.7,43.0,30.15,NE,41,7.0,10.0,60,0.00,,---,0.01,VWS V14.01,2013-02-06 17:10:00,
2013-02-06 11:15:00,56.7,43.0,30.16,ENE,75,5.0,11.0,60,0.00,,---,0.01,VWS V14.01,2013-02-06 17:15:00,
2013-02-06 11:20:00,57.1,43.4,30.16,East,94,3.0,11.0,60,0.00,,---,0.01,VWS V14.01,2013-02-06 17:20:00,
2013-02-06 11:25:00,57.2,42.6,30.15,NE,41,10.0,12.0,58,0.00,,---,0.01,VWS V14.01,2013-02-06 17:25:00,
2013-02-06 11:30:00,57.1,42.9,30.16,ENE,69,3.0,12.0,59,0.00,,---,0.01,VWS V14.01,2013-02-06 17:30:00,
2013-02-06 11:35:00,57.5,43.3,30.15,ESE,109,5.0,5.0,59,0.00,,---,0.01,VWS V14.01,2013-02-06 17:35:00,
2013-02-06 11:40:00,58.0,42.9,30.15,East,80,7.0,9.0,57,0.00,,---,0.01,VWS V14.01,2013-02-06 17:40:00,
2013-02-06 11:45:00,58.5,43.3,30.15,East,85,7.0,9.0,57,0.00,,---,0.01,VWS V14.01,2013-02-06 17:45:00,
2013-02-06 11:50:00,58.6,43.0,30.14,North,10,5.0,10.0,56,0.00,,---,0.01,VWS V14.01,2013-02-06 17:50:00,
2013-02-06 11:55:00,59.3,43.6,30.14,ENE,71,3.0,10.0,56,0.00,,---,0.01,VWS V14.01,2013-02-06 17:55:00,
2013-02-06 12:00:00,59.8,43.6,30.14,NE,49,3.0,10.0,55,0.00,,---,0.01,VWS V14.01,2013-02-06 18:00:00,
2013-02-06 12:05:00,60.2,43.0,30.14,North,5,4.0,4.0,53,0.00,,---,0.01,VWS V14.01,2013-02-06 18:05:00,
2013-02-06 12:10:00,60.3,43.1,30.14,NE,34,6.0,9.0,53,0.00,,---,0.01,VWS V14.01,2013-02-06 18:10:00,
2013-02-06 12:15:00,59.6,43.0,30.14,East,101,3.0,11.0,54,0.00,,---,0.01,VWS V14.01,2013-02-06 18:15:00,
2013-02-06 12:20:00,59.5,43.3,30.14,NE,44,4.0,11.0,55,0.00,,---,0.01,VWS V14.01,2013-02-06 18:20:00,
2013-02-06 12:25:00,59.7,43.5,30.14,NE,55,0.0,11.0,55,0.00,,---,0.01,VWS V14.01,2013-02-06 18:25:00,
2013-02-06 12:30:00,59.9,43.2,30.14,NE,38,2.0,11.0,54,0.00,,---,0.01,VWS V14.01,2013-02-06 18:30:00,
2013-02-06 12:34:00,60.0,43.3,30.14,NE,45,4.0,4.0,54,0.00,,---,0.01,VWS V14.01,2013-02-06 18:34:00,
2013-02-06 12:39:00,60.3,43.6,30.14,ESE,113,4.0,7.0,54,0.00,,---,0.01,VWS V14.01,2013-02-06 18:39:00,
2013-02-06 12:44:00,60.4,43.7,30.14,ESE,117,0.0,7.0,54,0.00,,---,0.01,VWS V14.01,2013-02-06 18:44:00,
2013-02-06 12:49:00,60.5,43.8,30.14,ESE,117,0.0,7.0,54,0.00,,---,0.01,VWS V14.01,2013-02-06 18:49:00,
2013-02-06 12:54:00,61.0,43.8,30.14,SE,129,3.0,7.0,53,0.00,,---,0.01,VWS V14.01,2013-02-06 18:54:00,
2013-02-06 12:59:00,61.2,43.5,30.13,SE,143,0.0,7.0,52,0.00,,---,0.01,VWS V14.01,2013-02-06 18:59:00,
2013-02-06 13:04:00,61.5,44.2,30.13,ENE,67,0.0,0.0,53,0.00,,---,0.01,VWS V14.01,2013-02-06 19:04:00,
2013-02-06 13:09:00,61.7,43.9,30.12,ENE,57,3.0,7.0,52,0.00,,---,0.01,VWS V14.01,2013-02-06 19:09:00,
2013-02-06 13:14:00,61.2,43.5,30.12,ENE,67,2.0,7.0,52,0.00,,---,0.01,VWS V14.01,2013-02-06 19:14:00,
2013-02-06 13:19:00,61.3,43.5,30.12,NE,52,0.0,7.0,52,0.00,,---,0.01,VWS V14.01,2013-02-06 19:19:00,
2013-02-06 13:24:00,61.9,44.6,30.12,SE,138,0.0,7.0,53,0.00,,---,0.01,VWS V14.01,2013-02-06 19:24:00,
2013-02-06 13:29:00,62.5,43.6,30.12,SSW,202,2.0,7.0,50,0.00,,---,0.01,VWS V14.01,2013-02-06 19:29:00,
2013-02-06 13:34:00,62.6,43.7,30.11,SSE,153,2.0,3.0,50,0.00,,---,0.01,VWS V14.01,2013-02-06 19:34:00,
2013-02-06 13:39:00,62.8,43.9,30.11,ENE,59,5.0,6.0,50,0.00,,---,0.01,VWS V14.01,2013-02-06 19:39:00,
2013-02-06 13:45:00,62.5,43.6,30.11,ENE,64,4.0,7.0,50,0.00,,---,0.01,VWS V14.01,2013-02-06 19:45:00,
2013-02-06 13:50:00,62.3,43.4,30.11,NE,34,2.0,7.0,50,0.00,,---,0.01,VWS V14.01,2013-02-06 19:50:00,
2013-02-06 13:55:00,62.2,43.3,30.10,ENE,65,4.0,7.0,50,0.00,,---,0.01,VWS V14.01,2013-02-06 19:55:00,
2013-02-06 14:00:00,62.0,43.7,30.10,NE,53,6.0,7.0,51,0.00,,---,0.01,VWS V14.01,2013-02-06 20:00:00,
2013-02-06 14:05:00,61.5,43.2,30.10,NNE,25,5.0,7.0,51,0.00,,---,0.01,VWS V14.01,2013-02-06 20:05:00,
2013-02-06 14:10:00,61.2,43.5,30.10,NE,52,6.0,9.0,52,0.00,,---,0.01,VWS V14.01,2013-02-06 20:10:00,
2013-02-06 14:15:00,60.9,43.2,30.10,ENE,65,4.0,9.0,52,0.00,,---,0.01,VWS V14.01,2013-02-06 20:15:00,
2013-02-06 14:20:00,60.8,43.1,30.09,NE,41,3.0,9.0,52,0.00,,---,0.01,VWS V14.01,2013-02-06 20:20:00,
2013-02-06 14:25:00,60.7,43.0,30.09,ENE,59,7.0,9.0,52,0.00,,---,0.01,VWS V14.01,2013-02-06 20:25:00,
2013-02-06 14:30:00,60.5,43.3,30.09,NE,55,3.0,9.0,53,0.00,,---,0.01,VWS V14.01,2013-02-06 20:30:00,
2013-02-06 14:35:00,60.7,43.5,30.09,East,80,3.0,5.0,53,0.00,,---,0.01,VWS V14.01,2013-02-06 20:35:00,
2013-02-06 14:40:00,60.5,43.3,30.09,NNE,27,3.0,7.0,53,0.00,,---,0.01,VWS V14.01,2013-02-06 20:40:00,
2013-02-06 14:45:00,60.5,43.3,30.09,NE,41,2.0,7.0,53,0.00,,---,0.01,VWS V14.01,2013-02-06 20:45:00,
2013-02-06 14:50:00,60.4,42.7,30.09,NE,42,3.0,11.0,52,0.00,,---,0.01,VWS V14.01,2013-02-06 20:50:00,
2013-02-06 14:55:00,60.2,43.0,30.08,ENE,57,4.0,11.0,53,0.00,,---,0.01,VWS V14.01,2013-02-06 20:55:00,
2013-02-06 15:00:00,60.1,42.9,30.08,NNE,33,1.0,11.0,53,0.00,,---,0.01,VWS V14.01,2013-02-06 21:00:00,
2013-02-06 15:05:00,60.0,42.8,30.08,NE,55,4.0,7.0,53,0.00,,---,0.01,VWS V14.01,2013-02-06 21:05:00,
2013-02-06 15:10:00,59.9,42.7,30.07,NE,53,6.0,8.0,53,0.00,,---,0.01,VWS V14.01,2013-02-06 21:10:00,
2013-02-06 15:15:00,59.8,42.7,30.08,NE,51,3.0,9.0,53,0.00,,---,0.01,VWS V14.01,2013-02-06 21:15:00,
2013-02-06 15:20:00,59.7,42.6,30.08,NE,49,4.0,9.0,53,0.00,,---,0.01,VWS V14.01,2013-02-06 21:20:00,
2013-02-06 15:25:00,59.8,42.7,30.08,NE,36,3.0,9.0,53,0.00,,---,0.01,VWS V14.01,2013-02-06 21:25:00,
2013-02-06 15:30:00,59.9,42.7,30.08,NE,44,3.0,9.0,53,0.00,,---,0.01,VWS V14.01,2013-02-06 21:30:00,
2013-02-06 15:35:00,60.0,42.8,30.07,ENE,59,3.0,4.0,53,0.00,,---,0.01,VWS V14.01,2013-02-06 21:35:00,
2013-02-06 15:40:00,60.1,42.9,30.07,NE,56,3.0,6.0,53,0.00,,---,0.01,VWS V14.01,2013-02-06 21:40:00,
2013-02-06 15:45:00,60.0,42.3,30.07,NE,43,2.0,6.0,52,0.00,,---,0.01,VWS V14.01,2013-02-06 21:45:00,
2013-02-06 15:50:00,60.0,42.3,30.07,ENE,60,8.0,10.0,52,0.00,,---,0.01,VWS V14.01,2013-02-06 21:50:00,
2013-02-06 15:55:00,59.9,42.2,30.07,East,84,5.0,10.0,52,0.00,,---,0.01,VWS V14.01,2013-02-06 21:55:00,
2013-02-06 16:00:00,59.8,42.7,30.07,NE,50,5.0,10.0,53,0.00,,---,0.01,VWS V14.01,2013-02-06 22:00:00,
2013-02-06 16:05:00,59.9,42.7,30.07,ENE,62,1.0,2.0,53,0.00,,---,0.01,VWS V14.01,2013-02-06 22:05:00,
2013-02-06 16:10:00,59.8,42.7,30.07,NE,44,4.0,6.0,53,0.00,,---,0.01,VWS V14.01,2013-02-06 22:10:00,
2013-02-06 16:15:00,59.8,42.2,30.07,ENE,59,3.0,7.0,52,0.00,,---,0.01,VWS V14.01,2013-02-06 22:15:00,
2013-02-06 16:20:00,59.6,42.0,30.06,ENE,67,2.0,9.0,52,0.00,,---,0.01,VWS V14.01,2013-02-06 22:20:00,
2013-02-06 16:25:00,59.5,42.4,30.06,NE,50,4.0,9.0,53,0.00,,---,0.01,VWS V14.01,2013-02-06 22:25:00,
2013-02-06 16:30:00,59.4,42.8,30.06,NE,45,2.0,9.0,54,0.00,,---,0.01,VWS V14.01,2013-02-06 22:30:00,
2013-02-06 16:35:00,59.2,42.6,30.06,ENE,57,2.0,4.0,54,0.00,,---,0.01,VWS V14.01,2013-02-06 22:35:00,
2013-02-06 16:40:00,59.0,42.4,30.06,NNE,17,1.0,6.0,54,0.00,,---,0.01,VWS V14.01,2013-02-06 22:40:00,
2013-02-06 16:45:00,58.8,42.7,30.07,NNE,33,4.0,6.0,55,0.00,,---,0.01,VWS V14.01,2013-02-06 22:45:00,
2013-02-06 16:50:00,58.7,42.6,30.06,NE,34,3.0,6.0,55,0.00,,---,0.01,VWS V14.01,2013-02-06 22:50:00,
2013-02-06 16:55:00,58.5,42.4,30.07,NE,38,1.0,7.0,55,0.00,,---,0.01,VWS V14.01,2013-02-06 22:55:00,
2013-02-06 17:00:00,58.3,42.7,30.06,NE,44,5.0,7.0,56,0.00,,---,0.01,VWS V14.01,2013-02-06 23:00:00,
2013-02-06 17:05:00,58.1,42.5,30.06,NNE,22,4.0,4.0,56,0.00,,---,0.01,VWS V14.01,2013-02-06 23:05:00,
2013-02-06 17:10:00,57.9,42.8,30.06,NNE,22,0.0,5.0,57,0.00,,---,0.01,VWS V14.01,2013-02-06 23:10:00,
2013-02-06 17:15:00,57.7,42.6,30.06,NE,46,8.0,8.0,57,0.00,,---,0.01,VWS V14.01,2013-02-06 23:15:00,
2013-02-06 17:20:00,57.5,42.4,30.06,NNE,32,3.0,8.0,57,0.00,,---,0.01,VWS V14.01,2013-02-06 23:20:00,
2013-02-06 17:25:00,57.3,42.7,30.06,NNE,24,1.0,8.0,58,0.00,,---,0.01,VWS V14.01,2013-02-06 23:25:00,
2013-02-06 17:30:00,57.1,42.5,30.06,NNE,24,0.0,8.0,58,0.00,,---,0.01,VWS V14.01,2013-02-06 23:30:00,
2013-02-06 17:35:00,56.9,42.3,30.06,NNE,31,6.0,6.0,58,0.00,,---,0.01,VWS V14.01,2013-02-06 23:35:00,
2013-02-06 17:40:00,56.8,42.2,30.06,NE,50,6.0,6.0,58,0.00,,---,0.01,VWS V14.01,2013-02-06 23:40:00,
2013-02-06 17:45:00,56.6,42.5,30.06,NE,47,3.0,6.0,59,0.00,,---,0.01,VWS V14.01,2013-02-06 23:45:00,
2013-02-06 17:50:00,56.5,42.4,30.06,NE,43,2.0,8.0,59,0.00,,---,0.01,VWS V14.01,2013-02-06 23:50:00,
2013-02-06 17:55:00,56.4,42.3,30.05,NE,50,4.0,8.0,59,0.00,,---,0.01,VWS V14.01,2013-02-06 23:55:00,
2013-02-06 18:00:00,56.3,42.2,30.06,NE,38,6.0,8.0,59,0.00,,---,0.01,VWS V14.01,2013-02-07 00:00:00,
2013-02-06 18:05:00,56.1,42.0,30.06,NNE,30,3.0,4.0,59,0.00,,---,0.01,VWS V14.01,2013-02-07 00:05:00,
2013-02-06 18:10:00,56.0,41.9,30.06,NE,52,3.0,7.0,59,0.00,,---,0.01,VWS V14.01,2013-02-07 00:10:00,
2013-02-06 18:15:00,56.0,41.9,30.06,NE,56,3.0,7.0,59,0.00,,---,0.01,VWS V14.01,2013-02-07 00:15:00,
2013-02-06 18:20:00,55.9,41.8,30.06,NE,51,5.0,7.0,59,0.00,,---,0.01,VWS V14.01,2013-02-07 00:20:00,
2013-02-06 18:25:00,55.8,42.1,30.06,ENE,57,4.0,7.0,60,0.00,,---,0.01,VWS V14.01,2013-02-07 00:25:00,
2013-02-06 18:30:00,55.7,42.0,30.07,ENE,57,3.0,7.0,60,0.00,,---,0.01,VWS V14.01,2013-02-07 00:30:00,
2013-02-06 18:35:00,55.5,41.9,30.07,ENE,67,7.0,7.0,60,0.00,,---,0.01,VWS V14.01,2013-02-07 00:35:00,
2013-02-06 18:40:00,55.4,41.8,30.07,NE,56,4.0,7.0,60,0.00,,---,0.01,VWS V14.01,2013-02-07 00:40:00,
2013-02-06 18:45:00,55.3,41.7,30.07,NE,51,5.0,7.0,60,0.00,,---,0.01,VWS V14.01,2013-02-07 00:45:00,
2013-02-06 18:50:00,55.2,42.0,30.07,ENE,65,0.0,7.0,61,0.00,,---,0.01,VWS V14.01,2013-02-07 00:50:00,
2013-02-06 18:55:00,55.0,41.8,30.07,ENE,64,3.0,7.0,61,0.00,,---,0.01,VWS V14.01,2013-02-07 00:55:00,
2013-02-06 19:00:00,54.9,41.7,30.07,NE,53,4.0,8.0,61,0.00,,---,0.01,VWS V14.01,2013-02-07 01:00:00,
2013-02-06 19:05:00,55.0,41.8,30.07,NE,40,3.0,3.0,61,0.00,,---,0.01,VWS V14.01,2013-02-07 01:05:00,
2013-02-06 19:10:00,54.9,41.7,30.07,NE,53,4.0,8.0,61,0.00,,---,0.01,VWS V14.01,2013-02-07 01:10:00,
2013-02-06 19:15:00,54.9,41.7,30.07,NE,36,2.0,8.0,61,0.00,,---,0.01,VWS V14.01,2013-02-07 01:15:00,
2013-02-06 19:20:00,54.8,41.2,30.07,NE,54,4.0,8.0,60,0.00,,---,0.01,VWS V14.01,2013-02-07 01:20:00,
2013-02-06 19:25:00,54.8,41.6,30.07,ENE,61,5.0,8.0,61,0.00,,---,0.01,VWS V14.01,2013-02-07 01:25:00,
2013-02-06 19:30:00,54.7,41.1,30.07,ENE,58,4.0,8.0,60,0.00,,---,0.01,VWS V14.01,2013-02-07 01:30:00,
2013-02-06 19:35:00,54.6,41.0,30.07,NE,53,4.0,4.0,60,0.00,,---,0.01,VWS V14.01,2013-02-07 01:35:00,
2013-02-06 19:40:00,54.6,41.0,30.06,NE,55,4.0,9.0,60,0.00,,---,0.01,VWS V14.01,2013-02-07 01:40:00,
2013-02-06 19:45:00,54.6,41.0,30.07,NE,42,2.0,9.0,60,0.00,,---,0.01,VWS V14.01,2013-02-07 01:45:00,
2013-02-06 19:50:00,54.5,40.9,30.07,ENE,61,1.0,9.0,60,0.00,,---,0.01,VWS V14.01,2013-02-07 01:50:00,
2013-02-06 19:55:00,54.5,40.9,30.07,NE,46,2.0,9.0,60,0.00,,---,0.01,VWS V14.01,2013-02-07 01:55:00,
2013-02-06 20:00:00,54.4,40.8,30.07,NE,42,0.0,9.0,60,0.00,,---,0.01,VWS V14.01,2013-02-07 02:00:00,
2013-02-06 20:05:00,54.3,40.7,30.07,NE,55,2.0,2.0,60,0.00,,---,0.01,VWS V14.01,2013-02-07 02:05:00,
2013-02-06 20:10:00,54.2,40.6,30.07,NE,53,4.0,4.0,60,0.00,,---,0.01,VWS V14.01,2013-02-07 02:10:00,
2013-02-06 20:15:00,54.1,40.5,30.06,ENE,64,7.0,7.0,60,0.00,,---,0.01,VWS V14.01,2013-02-07 02:15:00,
2013-02-06 20:20:00,54.0,40.4,30.06,NE,56,6.0,7.0,60,0.00,,---,0.01,VWS V14.01,2013-02-07 02:20:00,
2013-02-06 20:25:00,54.0,40.4,30.05,ENE,66,4.0,8.0,60,0.00,,---,0.01,VWS V14.01,2013-02-07 02:25:00,
2013-02-06 20:30:00,54.1,40.1,30.05,ENE,73,3.0,8.0,59,0.00,,---,0.01,VWS V14.01,2013-02-07 02:30:00,
2013-02-06 20:35:00,54.2,40.2,30.05,ENE,69,3.0,8.0,59,0.00,,---,0.01,VWS V14.01,2013-02-07 02:35:00,
2013-02-06 20:40:00,54.2,40.2,30.05,ENE,59,5.0,8.0,59,0.00,,---,0.01,VWS V14.01,2013-02-07 02:40:00,
2013-02-06 20:45:00,54.4,40.0,30.06,ENE,67,2.0,8.0,58,0.00,,---,0.01,VWS V14.01,2013-02-07 02:45:00,
2013-02-06 20:50:00,54.5,40.0,30.05,ENE,67,3.0,8.0,58,0.00,,---,0.01,VWS V14.01,2013-02-07 02:50:00,
2013-02-06 20:55:00,54.5,40.0,30.05,ENE,65,1.0,8.0,58,0.00,,---,0.01,VWS V14.01,2013-02-07 02:55:00,
2013-02-06 21:00:00,54.5,40.0,30.05,ENE,61,2.0,9.0,58,0.00,,---,0.01,VWS V14.01,2013-02-07 03:00:00,
2013-02-06 21:05:00,54.5,40.0,30.05,ENE,62,7.0,7.0,58,0.00,,---,0.01,VWS V14.01,2013-02-07 03:05:00,
2013-02-06 21:10:00,54.5,39.6,30.05,ENE,71,4.0,8.0,57,0.00,,---,0.01,VWS V14.01,2013-02-07 03:10:00,
2013-02-06 21:15:00,54.5,39.6,30.05,ENE,71,3.0,9.0,57,0.00,,---,0.01,VWS V14.01,2013-02-07 03:15:00,
2013-02-06 21:20:00,54.4,39.5,30.05,ENE,64,5.0,9.0,57,0.00,,---,0.01,VWS V14.01,2013-02-07 03:20:00,
2013-02-06 21:25:00,54.4,39.5,30.05,ENE,63,3.0,9.0,57,0.00,,---,0.01,VWS V14.01,2013-02-07 03:25:00,
2013-02-06 21:30:00,54.4,39.5,30.05,NE,50,4.0,9.0,57,0.00,,---,0.01,VWS V14.01,2013-02-07 03:30:00,
2013-02-06 21:35:00,54.3,39.4,30.05,NE,55,3.0,9.0,57,0.00,,---,0.01,VWS V14.01,2013-02-07 03:35:00,
2013-02-06 21:40:00,54.2,39.3,30.04,ENE,65,5.0,8.0,57,0.00,,---,0.01,VWS V14.01,2013-02-07 03:40:00,
2013-02-06 21:44:00,54.2,39.3,30.04,ENE,78,8.0,9.0,57,0.00,,---,0.01,VWS V14.01,2013-02-07 03:44:00,
2013-02-06 21:49:00,54.2,39.3,30.04,ENE,67,3.0,9.0,57,0.00,,---,0.01,VWS V14.01,2013-02-07 03:49:00,
2013-02-06 21:55:00,54.2,39.3,30.04,ENE,75,4.0,9.0,57,0.00,,---,0.01,VWS V14.01,2013-02-07 03:55:00,
2013-02-06 21:59:00,54.1,39.2,30.04,ENE,69,4.0,9.0,57,0.00,,---,0.01,VWS V14.01,2013-02-07 03:59:00,
2013-02-06 22:04:00,54.1,39.2,30.04,ENE,75,2.0,9.0,57,0.00,,---,0.01,VWS V14.01,2013-02-07 04:04:00,
2013-02-06 22:09:00,54.1,39.2,30.03,ENE,67,2.0,8.0,57,0.00,,---,0.01,VWS V14.01,2013-02-07 04:09:00,
2013-02-06 22:14:00,54.1,38.8,30.03,East,88,2.0,8.0,56,0.00,,---,0.01,VWS V14.01,2013-02-07 04:14:00,
2013-02-06 22:19:00,54.1,38.8,30.04,East,83,3.0,8.0,56,0.00,,---,0.01,VWS V14.01,2013-02-07 04:19:00,
2013-02-06 22:24:00,54.1,38.8,30.03,ENE,77,2.0,8.0,56,0.00,,---,0.01,VWS V14.01,2013-02-07 04:24:00,
2013-02-06 22:29:00,54.0,38.7,30.03,NE,53,2.0,8.0,56,0.00,,---,0.01,VWS V14.01,2013-02-07 04:29:00,
2013-02-06 22:34:00,54.0,38.7,30.04,ENE,70,2.0,3.0,56,0.00,,---,0.01,VWS V14.01,2013-02-07 04:34:00,
2013-02-06 22:39:00,54.0,38.7,30.03,NE,49,0.0,5.0,56,0.00,,---,0.01,VWS V14.01,2013-02-07 04:39:00,
2013-02-06 22:44:00,53.9,38.6,30.03,NE,49,4.0,5.0,56,0.00,,---,0.01,VWS V14.01,2013-02-07 04:44:00,
2013-02-06 22:49:00,53.9,38.6,30.03,ENE,77,3.0,7.0,56,0.00,,---,0.01,VWS V14.01,2013-02-07 04:49:00,
2013-02-06 22:54:00,53.9,38.6,30.03,ENE,63,4.0,7.0,56,0.00,,---,0.01,VWS V14.01,2013-02-07 04:54:00,
2013-02-06 22:59:00,53.8,38.5,30.03,East,85,1.0,7.0,56,0.00,,---,0.01,VWS V14.01,2013-02-07 04:59:00,
2013-02-06 23:00:00,53.8,38.5,30.03,East,85,2.0,7.0,56,0.00,,---,0.01,VWS V14.01,2013-02-07 05:00:00,
2013-02-06 23:05:00,53.7,38.4,30.03,East,85,2.0,3.0,56,0.00,,---,0.01,VWS V14.01,2013-02-07 05:05:00,
2013-02-06 23:10:00,53.6,38.3,30.03,ENE,60,0.0,4.0,56,0.00,,---,0.01,VWS V14.01,2013-02-07 05:10:00,
2013-02-06 23:15:00,53.6,38.3,30.03,ENE,76,2.0,4.0,56,0.00,,---,0.01,VWS V14.01,2013-02-07 05:15:00,
2013-02-06 23:20:00,53.4,38.1,30.03,ENE,76,0.0,4.0,56,0.00,,---,0.01,VWS V14.01,2013-02-07 05:20:00,
2013-02-06 23:25:00,53.3,38.0,30.03,ENE,76,0.0,4.0,56,0.00,,---,0.01,VWS V14.01,2013-02-07 05:25:00,
2013-02-06 23:30:00,53.1,37.8,30.03,ENE,76,0.0,4.0,56,0.00,,---,0.01,VWS V14.01,2013-02-07 05:30:00,
2013-02-06 23:35:00,53.0,38.2,30.03,ENE,76,1.0,1.0,57,0.00,,---,0.01,VWS V14.01,2013-02-07 05:35:00,
2013-02-06 23:41:00,52.7,38.3,30.03,ENE,76,0.0,1.0,58,0.00,,---,0.01,VWS V14.01,2013-02-07 05:41:00,
2013-02-06 23:46:00,52.5,38.2,30.03,ENE,76,2.0,3.0,58,0.00,,---,0.01,VWS V14.01,2013-02-07 05:46:00,
2013-02-06 23:51:00,52.2,37.9,30.03,ENE,76,0.0,3.0,58,0.00,,---,0.01,VWS V14.01,2013-02-07 05:51:00,
2013-02-06 23:56:00,52.0,38.1,30.03,ENE,76,2.0,3.0,59,0.00,,---,0.01,VWS V14.01,2013-02-07 05:56:00,